Wind_Speed
32 32 32 33 33 34 35 36 36 36 36 37 37 37 38 38 38 38 37 37 37 37 37 37 38 38 38 39 39 40 41 42 43 43 44 45 45 45 45 45 46 45 45 46 46 46 46 46 47 47 47 48 49 50 50 51 52 52 53 54 55 56 57 58 60 60 61 61 61 61 62 62 63 63 62 62 62 61 61 61 61 61 60 60 59
32 32 32 32 32 32 33 33 34 34 35 35 36 37 37 37 37 37 37 37 37 37 38 38 38 39 39 40 40 41 42 42 43 44 45 45 46 46 46 47 46 46 46 46 46 46 46 47 47 47 48 49 50 51 52 52 53 54 54 55 56 56 57 58 59 60 61 62 62 62 62 63 63 62 62 62 61 61 61 61 61 61 61 60 59
32 33 33 33 33 33 33 33 34 34 35 35 35 36 36 36 37 37 37 36 36 37 37 37 38 38 39 39 40 40 41 42 43 44 45 46 46 47 47 47 48 48 47 47 47 47 48 48 49 49 50 51 52 53 53 54 55 55 55 56 56 57 57 58 59 60 61 61 61 62 62 62 62 61 61 61 60 60 60 60 60 60 60 59 58
34 33 33 33 33 34 34 34 35 35 35 35 35 35 35 36 36 36 37 36 36 36 37 37 38 38 39 39 40 41 41 43 44 45 46 47 47 48 48 48 48 49 49 49 49 49 50 50 50 50 51 52 52 53 54 55 56 56 56 56 56 56 56 57 58 58 59 60 60 60 60 60 61 61 61 60 60 60 59 59 59 59 59 59 58
38 38 36 35 34 34 34 35 35 35 35 35 35 36 36 36 37 37 37 37 37 37 38 39 40 41 41 42 43 44 44 45 46 47 47 48 48 49 49 49 50 50 50 50 50 50 50 50 50 50 51 52 53 53 55 55 55 55 55 55 55 55 55 55 56 56 57 58 59 59 59 59 59 60 60 60 60 59 59 59 59 59 59 58 57
38 39 39 39 38 37 37 36 36 37 37 37 38 38 38 38 38 38 38 39 39 40 41 42 44 45 45 46 47 47 47 47 47 48 48 48 48 49 49 50 50 50 50 49 49 49 49 49 49 50 51 52 52 53 53 53 53 53 53 53 53 53 53 53 54 54 55 56 56 57 57 58 58 59 59 59 60 59 59 59 59 58 58 56 55
38 38 39 39 40 40 40 40 40 40 40 40 40 40 40 40 40 40 41 41 42 44 45 46 47 48 49 49 49 49 49 48 48 48 48 48 48 48 49 49 49 49 49 49 49 49 50 50 50 51 51 51 51 51 51 51 51 51 51 50 51 51 51 52 52 53 53 54 55 56 57 57 58 59 59 59 60 60 59 58 57 56 55 55 55
39 39 39 39 39 40 41 41 43 44 44 45 45 44 44 44 45 45 46 47 48 49 49 50 51 51 50 50 50 50 50 50 50 49 50 50 49 48 49 49 49 49 49 49 49 49 49 49 49 49 49 49 49 49 49 49 49 49 49 49 50 50 50 50 51 52 53 54 55 56 56 57 58 58 58 58 58 58 56 56 55 54 55 56 56
39 40 40 40 40 39 40 40 41 42 44 46 47 48 49 50 50 51 52 52 52 52 52 51 51 50 50 50 51 51 51 51 51 51 50 50 49 49 49 49 49 49 48 48 48 48 48 48 48 48 48 48 48 48 48 48 48 48 48 48 49 49 50 50 51 51 52 53 54 54 55 55 55 55 56 55 55 54 54 55 55 55 56 57 58
38 38 39 39 39 39 39 39 40 40 41 42 43 44 46 47 49 49 49 49 49 49 49 48 48 48 49 50 51 51 51 50 50 50 50 49 49 49 49 48 48 48 47 47 47 47 47 47 47 47 47 47 47 48 48 48 48 47 47 48 48 48 49 49 49 50 51 51 52 52 53 53 53 53 53 53 53 53 54 55 56 56 56 57 58
39 39 38 38 38 38 38 38 38 39 40 40 41 41 42 42 43 44 44 45 45 45 45 46 46 47 47 48 48 48 48 47 47 47 47 47 47 47 48 47 47 47 47 47 47 46 46 46 46 47 47 48 48 48 48 48 48 48 48 47 47 48 48 49 49 50 50 51 51 51 52 52 52 52 52 52 53 53 54 54 55 55 56 57 58
39 39 39 38 37 37 37 36 37 37 37 38 39 39 40 40 40 41 41 42 42 43 44 44 45 45 45 44 44 44 44 44 44 45 45 46 46 47 47 47 46 47 47 47 47 47 47 47 47 48 48 48 48 48 48 48 47 47 47 47 47 48 49 49 50 50 51 51 51 52 52 52 52 52 52 52 52 52 53 54 55 56 57 58 59
38 38 39 39 38 37 37 36 36 36 36 36 37 37 38 38 39 39 40 40 41 41 42 42 43 43 43 42 42 42 43 43 43 44 45 45 45 46 45 46 46 46 46 46 46 47 47 47 47 47 47 47 47 47 47 47 47 47 47 48 48 49 49 49 50 50 51 51 52 52 52 51 52 51 51 51 52 53 54 55 56 57 58 59 59
37 37 37 37 38 37 37 37 36 36 36 36 36 37 37 38 38 38 39 39 39 40 40 40 40 41 41 41 41 41 41 41 42 42 43 43 43 43 43 44 44 44 44 44 44 45 45 45 45 45 45 45 46 46 46 47 47 48 48 49 49 49 50 50 50 50 50 50 50 50 49 49 50 50 50 51 53 54 55 56 57 57 59 60 60
36 36 36 36 36 36 37 37 37 37 36 36 37 37 37 37 38 38 38 38 38 39 39 39 40 40 40 40 40 40 40 40 41 41 42 42 42 42 42 43 42 42 42 42 42 43 43 43 43 43 44 44 44 45 45 46 47 47 48 48 48 48 48 48 48 48 48 48 48 48 48 49 49 50 51 52 54 55 55 56 57 58 60 61 62
35 34 34 34 35 36 36 36 36 36 36 36 36 36 36 37 37 38 38 39 39 39 39 39 39 39 40 40 40 40 40 40 41 41 41 41 41 41 42 42 42 42 41 41 41 41 41 41 42 42 42 43 43 44 44 45 45 45 45 45 45 45 45 45 45 46 47 48 48 48 48 49 50 51 52 53 54 55 55 56 58 59 61 62 62
33 33 32 33 33 34 35 35 35 35 35 35 35 35 36 36 36 37 38 38 39 39 39 39 39 39 39 39 39 39 40 40 40 41 41 40 40 40 40 40 40 40 40 40 40 40 40 40 40 41 41 41 42 42 42 43 43 43 43 43 44 44 45 45 45 46 46 47 48 49 50 50 51 51 52 53 54 54 55 57 58 58 59 60 61
31 31 31 31 32 33 33 34 34 34 35 35 35 35 35 35 35 36 37 37 38 38 38 38 38 38 38 38 38 38 38 38 38 38 38 38 37 37 38 38 38 38 38 38 39 39 39 40 40 40 40 40 41 41 41 41 42 42 43 43 44 45 45 46 46 46 47 47 48 49 50 51 51 52 52 53 53 54 55 56 57 57 58 59 59
30 30 30 30 31 31 32 33 33 34 34 34 34 34 34 34 34 35 35 36 37 37 37 37 37 37 37 37 36 36 35 35 34 34 35 35 35 34 34 35 35 36 36 37 38 39 39 39 39 39 39 40 40 40 40 41 42 42 43 43 44 45 45 45 46 46 47 48 48 48 49 50 51 52 52 53 53 54 55 55 55 56 57 58 58
29 29 29 29 29 30 31 31 32 32 33 33 33 33 33 32 32 33 33 34 34 35 35 35 35 35 34 34 34 33 32 31 31 31 31 32 33 32 32 32 33 34 35 36 36 37 37 37 38 38 38 39 39 39 40 41 41 42 43 43 44 44 44 45 46 47 47 48 48 49 49 49 50 52 53 53 53 54 55 55 55 56 56 56 57
30 30 29 29 29 29 29 30 30 31 31 31 32 32 32 31 31 31 31 32 32 32 32 32 32 32 32 32 31 31 30 29 29 29 30 30 31 32 31 31 32 32 33 34 34 34 35 35 36 37 37 38 38 39 39 39 40 41 43 43 44 44 45 46 46 47 48 48 49 49 50 50 50 51 51 52 52 53 54 55 55 55 55 56 56
31 31 30 30 29 29 29 29 29 29 29 29 29 29 29 29 28 28 29 29 29 29 28 28 29 29 29 30 29 29 29 28 28 28 29 29 30 31 31 31 31 32 32 32 32 33 34 34 35 35 36 36 37 38 38 39 40 41 42 43 44 45 45 46 46 47 47 48 48 49 49 49 49 49 48 49 49 49 50 51 52 52 53 54 54
30 30 30 30 29 29 29 29 29 29 29 28 28 27 27 26 26 26 26 27 27 26 26 26 26 27 27 28 28 28 27 27 26 26 27 28 28 29 30 31 32 32 32 32 32 32 33 33 34 34 35 35 36 37 38 39 40 40 41 42 43 44 45 46 47 48 49 49 49 49 49 48 48 48 48 47 47 47 47 48 49 50 51 52 52
30 30 29 29 29 28 28 28 28 28 28 27 27 26 25 25 25 25 25 25 24 25 25 24 25 25 26 26 27 26 26 25 25 25 25 26 27 29 30 31 32 32 32 32 32 32 33 33 33 34 34 35 36 37 38 39 40 41 42 43 44 44 44 45 47 48 49 50 50 50 50 50 49 49 48 47 46 47 47 48 48 48 49 50 50
30 30 29 29 28 28 28 28 28 27 26 26 25 25 24 23 23 24 23 23 23 24 24 24 24 24 24 25 25 25 25 25 24 24 25 26 27 29 30 31 32 32 32 32 32 33 33 34 34 35 35 35 36 38 39 39 40 41 42 42 43 43 43 44 45 46 47 48 49 50 50 50 50 50 49 49 48 48 47 47 47 46 47 48 48
30 30 29 29 28 27 27 27 27 26 25 24 24 24 23 22 22 23 22 22 23 23 23 23 23 23 23 23 23 24 24 24 24 25 25 26 28 29 30 30 31 31 32 32 33 33 34 35 35 36 36 36 37 37 38 39 39 40 40 41 41 42 43 43 44 45 46 46 47 48 48 48 48 49 49 49 49 49 48 47 47 47 47 48 48
30 30 29 28 27 26 26 25 25 25 24 23 22 22 21 21 21 21 21 21 21 21 22 22 22 22 22 22 22 22 23 24 25 26 26 27 28 29 30 30 31 31 32 33 33 34 34 35 35 35 35 35 36 36 37 38 39 40 40 41 41 42 42 43 44 45 45 46 46 47 47 47 47 47 48 48 49 49 48 48 49 49 49 49 50
30 29 28 26 25 24 24 23 23 23 23 22 21 21 20 20 20 20 20 20 20 21 21 21 21 21 21 21 21 21 22 24 25 26 27 28 29 29 29 30 31 32 33 33 33 34 34 34 34 35 35 36 36 37 38 38 39 39 40 40 41 41 42 43 43 44 45 45 46 46 46 47 47 47 47 48 48 48 49 49 50 51 51 52 53
29 28 26 24 23 22 22 21 21 21 21 21 20 20 20 19 19 19 19 19 20 20 20 21 22 22 21 21 20 21 22 23 25 26 28 29 30 30 30 31 32 32 31 32 32 33 34 34 35 35 36 36 37 37 38 38 38 39 39 39 40 40 41 41 42 42 43 44 44 45 46 46 47 47 48 48 48 48 49 50 51 52 52 53 55
26 26 25 23 21 20 20 20 19 19 19 19 20 20 19 18 19 19 19 19 19 20 20 21 22 22 21 21 21 21 22 22 24 26 27 29 30 31 31 32 32 31 30 31 32 34 34 34 34 35 35 35 36 36 36 37 37 38 38 39 39 40 40 41 41 42 42 43 44 45 45 46 46 47 47 48 48 48 49 49 50 51 52 53 55
24 23 23 21 19 18 18 18 18 18 18 18 18 19 18 18 17 17 18 19 19 20 20 21 22 23 22 22 22 22 22 23 24 25 26 28 30 31 31 32 31 30 30 31 32 33 33 33 33 33 33 34 34 35 35 36 36 37 38 38 39 39 40 40 41 41 42 42 43 44 44 45 45 45 46 47 47 48 48 49 50 51 52 53 54
22 21 21 19 18 17 17 17 18 18 17 17 16 17 17 18 18 17 18 18 19 20 21 21 22 23 24 24 25 24 24 24 24 25 26 28 30 30 29 30 30 29 30 31 31 31 31 32 32 32 32 33 33 33 34 35 35 36 36 37 37 38 38 39 40 40 41 41 41 42 42 43 43 44 45 46 46 47 48 49 50 51 53 54 54
20 19 19 18 17 17 17 17 17 17 17 16 16 15 16 17 18 19 19 19 20 20 21 22 23 24 26 26 27 27 26 26 26 26 26 28 29 27 27 29 29 28 29 30 30 30 30 30 30 31 31 31 31 32 33 33 34 34 35 36 36 37 37 37 38 38 38 38 39 39 40 41 42 43 43 44 46 47 48 49 50 51 52 53 54
18 18 17 16 16 16 16 16 16 16 16 15 15 16 16 16 17 18 19 21 22 23 23 24 24 26 27 28 28 29 28 28 27 26 27 28 27 26 26 28 28 27 27 28 28 27 27 28 28 28 28 29 29 30 30 31 32 33 33 34 35 35 35 35 36 36 36 36 37 38 39 40 41 42 43 44 45 45 46 47 48 49 51 52 53
17 17 16 16 15 15 16 16 16 16 15 15 15 16 16 16 17 17 18 19 21 23 25 26 27 27 28 29 29 29 28 28 27 27 27 28 27 26 26 26 26 26 26 26 26 26 26 26 26 26 27 27 28 28 28 29 30 30 31 31 32 33 33 34 34 35 36 37 37 38 39 40 40 41 42 43 43 44 45 46 46 47 48 49 50
15 16 16 15 15 14 15 15 15 15 15 15 16 16 16 17 17 18 18 19 20 21 23 25 27 28 29 29 28 27 26 26 26 27 28 28 27 25 25 25 24 24 25 25 25 25 25 25 26 26 26 26 27 27 27 28 28 28 29 30 30 31 32 33 34 35 36 37 38 38 39 39 39 40 40 41 41 42 42 43 44 45 46 47 48
15 15 15 15 14 14 14 14 14 15 15 16 16 17 17 17 18 18 19 20 21 22 23 24 25 27 28 27 26 25 25 25 26 26 27 26 25 24 24 24 24 24 24 24 25 25 25 26 26 26 26 26 26 26 27 27 27 28 28 29 30 31 32 33 34 35 36 36 36 37 37 37 37 38 38 38 39 40 40 41 42 43 43 44 45
14 14 15 14 14 14 15 15 15 15 16 16 17 17 17 18 18 19 20 21 22 22 23 24 24 25 25 25 25 25 25 25 25 25 25 25 24 25 24 24 24 24 24 24 25 25 25 25 25 25 25 26 26 26 27 27 27 28 29 29 30 31 32 33 33 34 34 34 34 34 34 35 35 36 36 37 37 38 39 40 40 41 42 43 43
14 15 15 14 15 15 15 15 16 16 16 17 17 17 18 18 19 20 21 22 22 22 23 23 23 23 23 23 24 24 25 25 25 24 24 24 24 25 25 25 24 24 24 24 24 24 24 24 24 25 25 25 26 26 26 27 27 28 29 29 30 30 31 31 31 32 32 32 32 32 33 33 33 34 34 35 36 37 37 38 39 40 41 41 42
14 15 15 15 15 15 15 16 16 16 17 17 18 18 18 19 20 21 22 22 22 22 22 22 22 22 22 22 23 23 24 24 24 24 24 24 24 25 25 25 25 24 24 24 24 24 24 24 24 24 25 25 25 26 26 27 27 28 28 29 29 29 29 29 29 30 30 30 31 31 31 31 32 32 33 34 35 36 36 37 37 38 39 39 39
14 14 15 15 15 15 16 16 16 17 17 18 18 19 19 20 21 22 22 22 22 22 22 22 22 22 22 22 23 23 23 24 24 24 24 24 24 24 24 24 24 24 23 23 23 23 23 23 23 24 24 24 25 25 26 27 27 27 27 27 27 27 28 28 28 28 28 28 28 29 29 29 30 31 32 33 34 34 35 35 35 35 35 35 35
14 14 15 15 15 15 16 16 17 17 18 18 19 19 20 21 22 22 22 22 22 21 21 22 22 22 22 22 23 23 24 24 25 25 25 25 24 24 24 24 24 23 23 22 22 22 23 23 23 23 23 24 24 25 25 26 26 26 26 26 26 27 27 27 26 26 26 26 26 26 27 28 28 29 30 31 31 32 32 32 32 32 31 31 31
15 15 15 16 16 17 17 17 18 18 18 19 19 20 20 21 22 22 22 22 22 22 21 21 22 22 22 23 23 24 25 25 26 26 26 25 25 24 24 24 23 23 22 22 22 22 22 22 22 22 23 23 24 24 25 25 25 25 25 25 26 26 25 25 25 24 24 24 24 24 25 26 27 28 29 29 29 29 29 28 28 28 28 27 27
16 16 16 17 18 18 18 18 18 18 18 19 20 21 22 22 22 23 22 22 22 22 22 21 22 22 23 23 24 24 25 25 26 26 25 25 24 24 23 23 23 23 22 22 21 21 21 21 21 22 22 23 23 23 23 23 23 24 24 24 24 24 23 23 22 22 22 22 22 23 23 24 25 26 26 26 26 25 25 25 24 24 24 24 24
16 16 17 18 18 19 19 19 19 18 19 19 20 21 22 23 23 23 23 23 22 22 22 22 22 22 22 23 24 24 24 25 25 25 25 24 24 23 23 22 22 22 22 22 21 21 21 21 21 21 22 22 22 22 22 22 22 22 22 22 22 21 21 20 20 20 20 20 20 21 21 22 22 23 23 23 22 22 22 21 21 20 20 20 20
17 18 18 19 19 19 20 20 19 19 19 20 20 21 23 23 24 24 23 23 23 23 23 23 22 22 22 23 23 24 24 24 24 24 24 24 23 23 22 22 22 22 21 21 21 20 20 20 20 21 21 21 21 21 21 21 21 21 20 20 19 18 18 18 17 17 17 18 18 18 19 19 19 20 20 20 19 19 19 18 18 17 17 17 17
18 19 19 20 20 20 20 20 20 20 20 21 21 22 23 24 24 24 24 24 24 23 23 23 23 22 22 23 23 23 24 24 23 23 23 23 23 22 22 21 21 21 20 20 20 20 19 19 19 20 20 20 20 20 20 19 19 19 18 17 17 16 16 16 15 15 15 15 16 16 16 16 17 17 17 17 17 17 17 16 16 16 15 15 15
20 20 20 20 20 20 20 20 20 20 21 22 22 23 23 24 24 25 25 25 24 24 24 24 23 23 23 23 23 23 23 23 23 23 22 22 22 22 21 21 21 20 20 19 19 19 18 18 18 18 19 19 19 19 18 17 17 17 16 15 15 15 14 14 13 13 13 13 13 13 14 14 14 15 15 16 16 16 16 16 16 15 15 15 15
21 21 21 22 21 21 21 21 21 21 22 22 23 23 24 24 24 25 25 25 25 25 25 25 24 24 24 23 23 23 23 23 23 23 22 22 22 21 21 21 20 20 19 18 18 18 17 17 17 17 17 17 17 17 16 16 15 14 14 13 13 12 12 12 11 11 11 11 11 11 12 12 13 14 14 15 15 16 16 16 16 16 15 15 15
22 23 23 22 22 22 22 22 22 22 22 23 23 24 24 24 25 25 25 25 25 25 25 25 25 24 24 24 24 24 24 23 23 22 22 21 21 20 20 20 19 19 18 17 17 17 16 16 16 15 15 16 15 15 14 13 13 12 11 11 11 10 10 9 9 9 9 9 9 10 11 11 12 13 14 15 15 15 16 16 16 16 16 16 16
24 24 23 23 23 23 23 23 23 23 23 24 24 24 24 25 25 25 25 25 26 26 25 25 25 25 24 24 24 24 24 24 23 22 22 21 20 19 19 19 18 18 17 16 16 15 15 15 14 14 14 14 13 13 12 11 10 10 9 9 8 8 7 7 7 7 8 8 9 10 10 11 12 13 14 14 15 15 15 16 16 16 16 16 16
Wind_Direction
263 262 260 259 258 256 255 254 254 254 254 254 254 253 253 253 252 252 252 251 250 250 251 251 251 251 252 253 254 255 256 257 258 259 259 260 261 261 261 261 261 261 261 261 261 261 262 262 263 263 264 264 264 264 264 264 264 264 263 263 263 264 264 264 265 266 267 267 267 266 265 265 265 265 266 266 266 267 267 266 266 266 265 265 264
264 263 262 260 259 256 255 254 253 252 251 251 250 250 250 250 251 251 251 251 251 251 252 252 252 252 253 253 254 255 256 257 258 259 260 260 261 261 261 262 262 262 262 262 262 262 263 263 263 264 264 265 265 265 265 265 264 264 264 263 263 263 263 263 264 264 265 265 265 265 265 265 264 265 265 265 265 265 264 264 264 264 263 263 263
263 260 259 258 257 255 254 252 251 249 248 248 247 247 247 248 249 249 250 250 251 252 253 254 254 255 256 256 257 258 258 259 260 260 261 261 261 262 262 262 262 262 262 262 262 263 263 264 264 264 265 265 265 265 265 265 265 264 264 264 263 263 262 262 262 263 263 264 264 264 264 264 265 265 264 264 264 263 263 263 263 263 263 263 263
268 263 259 256 254 253 251 250 249 248 246 246 246 246 247 248 249 250 251 251 252 254 255 256 257 258 259 260 260 261 261 261 261 261 261 262 262 262 262 262 262 262 262 263 263 264 264 264 265 265 264 265 265 265 265 265 265 265 264 264 263 263 262 262 262 262 263 263 264 264 264 264 265 265 264 264 264 264 263 263 262 263 263 263 264
272 269 266 262 258 254 252 250 249 248 248 248 249 249 249 249 250 251 252 253 254 256 258 260 261 262 263 264 265 265 265 265 265 264 264 264 264 264 263 263 263 263 263 264 264 264 264 265 265 264 264 265 265 265 265 265 265 265 265 264 264 264 263 263 263 263 263 263 264 264 264 264 265 265 265 265 265 264 264 263 263 263 264 265 265
272 270 267 265 262 260 257 254 252 250 249 249 249 250 250 251 252 252 253 255 257 259 261 263 265 266 268 269 270 270 270 269 269 268 267 268 268 267 266 266 265 265 265 265 265 265 266 266 265 265 265 265 265 265 265 265 265 265 265 265 265 264 263 263 263 263 263 263 264 264 264 264 265 265 265 265 265 264 264 264 264 264 266 267 267
279 275 271 268 265 263 261 259 257 255 253 252 251 250 251 251 252 253 255 256 259 261 263 266 268 269 271 272 272 273 272 271 270 269 269 270 270 269 268 268 268 268 268 267 267 267 267 267 266 266 266 266 266 265 265 265 265 265 265 264 264 264 263 263 263 263 262 262 263 263 264 264 264 264 264 264 264 264 265 265 266 267 267 267 268
286 284 281 278 274 270 268 265 262 260 258 257 256 256 255 255 255 256 258 260 262 264 266 268 269 270 270 271 272 272 272 271 271 270 270 271 271 270 269 269 269 269 269 268 268 268 267 267 266 266 266 266 266 265 265 265 265 264 264 264 264 264 264 264 263 263 262 261 262 262 263 263 263 263 264 264 264 266 267 267 267 267 267 267 268
290 288 286 284 282 279 277 274 271 268 265 263 261 260 259 259 259 260 261 263 265 266 268 268 268 269 270 271 271 271 271 271 271 271 271 272 271 271 270 270 270 270 269 269 269 268 268 267 267 266 266 265 265 265 264 264 265 265 265 265 265 265 265 264 264 263 262 262 262 262 262 263 263 264 264 264 265 266 266 265 265 266 266 267 268
291 290 288 287 285 284 282 279 277 275 273 271 269 267 266 265 264 265 265 266 267 268 268 269 269 269 270 270 270 270 270 270 270 270 271 271 271 270 270 270 270 270 269 269 268 268 267 267 266 265 265 264 264 264 265 265 265 266 266 266 266 266 266 265 265 264 263 263 263 262 262 263 263 263 263 264 264 264 264 264 266 267 268 268 269
289 290 289 288 287 285 284 282 280 278 276 275 274 274 273 272 272 271 271 271 270 270 270 270 270 270 269 269 268 269 269 269 269 269 269 269 269 269 269 269 269 269 268 268 268 267 267 266 265 265 264 264 264 265 265 266 266 266 266 266 266 266 265 265 265 264 263 263 263 262 262 263 263 263 264 264 264 265 265 267 267 268 268 269 269
287 287 287 288 288 286 285 283 282 280 278 276 275 274 274 274 274 273 273 272 272 271 270 269 269 268 268 267 267 267 268 268 268 268 268 268 268 268 268 268 268 268 268 268 267 267 267 267 267 267 267 266 266 266 266 266 266 266 266 265 265 265 264 264 263 263 263 263 263 263 263 264 265 265 266 266 266 266 266 267 267 267 268 269 270
287 285 285 285 286 286 285 284 282 281 279 277 275 274 273 272 272 271 271 270 269 269 268 268 267 267 267 267 267 267 267 268 268 267 267 267 267 267 267 267 268 268 268 268 268 268 268 268 268 268 268 268 267 267 266 265 264 264 263 263 263 263 263 263 263 263 263 264 264 264 264 265 266 266 266 266 266 266 266 266 267 268 268 269 270
288 286 284 283 283 284 284 283 282 281 280 278 276 275 273 272 272 271 270 269 268 268 267 267 267 267 267 267 267 267 267 267 267 267 266 267 266 266 266 266 266 266 267 267 267 267 267 267 267 267 267 266 266 265 265 264 263 263 263 263 263 263 263 263 263 264 264 264 265 265 265 265 265 266 265 265 265 265 266 267 267 268 269 269 270
289 286 284 282 282 282 282 282 282 281 281 280 279 278 276 275 274 273 272 271 269 268 268 267 267 267 267 267 267 267 267 267 267 267 267 267 267 266 266 265 265 265 265 265 265 265 265 265 265 265 265 265 264 264 264 263 263 263 263 263 263 263 263 263 264 265 265 265 265 265 266 266 266 266 266 265 265 266 266 267 267 268 268 268 268
288 286 284 282 281 281 281 282 282 282 282 281 281 280 279 278 277 276 275 274 273 271 270 268 268 267 267 267 268 268 268 268 269 269 269 269 269 268 268 267 267 266 265 265 265 265 265 265 265 265 265 264 264 263 263 263 263 263 263 263 263 263 263 264 264 265 265 265 266 266 266 266 266 266 266 266 266 266 267 266 267 267 267 268 269
288 286 284 282 281 281 281 281 282 282 282 282 282 281 280 280 279 278 278 277 276 276 274 273 272 271 271 270 270 271 271 271 271 271 271 270 270 269 269 268 268 267 267 266 266 266 265 265 265 264 264 263 262 262 262 262 262 262 263 263 264 264 264 265 265 266 266 267 267 267 267 266 266 266 266 267 267 267 267 268 268 268 268 269 270
288 287 285 284 283 282 282 282 282 283 283 283 283 282 281 281 280 280 279 279 279 278 278 277 276 275 275 274 274 273 273 272 272 272 272 271 270 269 269 268 268 267 267 266 266 266 265 264 264 263 262 261 261 261 262 262 262 262 262 263 263 263 264 264 265 266 266 266 267 267 267 268 267 267 267 267 267 267 267 268 269 269 269 270 271
289 288 286 286 284 283 283 282 283 283 283 283 283 282 282 281 281 281 281 281 281 280 280 279 279 278 278 277 276 275 274 273 272 272 272 271 270 270 270 269 268 268 267 266 266 265 265 264 264 263 262 262 263 263 264 264 264 263 263 263 263 264 265 265 266 266 266 266 266 266 267 268 269 269 269 269 268 268 268 268 267 268 269 270 271
291 289 288 286 285 284 284 283 283 283 283 283 283 283 283 283 283 283 282 282 281 281 281 281 280 280 279 278 277 275 274 274 273 273 273 273 272 271 271 270 269 268 268 267 266 266 265 265 265 265 265 265 265 265 266 266 266 266 266 266 266 266 267 267 267 267 267 267 267 267 266 266 266 267 268 269 269 269 270 271 271 271 271 271 271
293 291 290 288 286 286 285 284 283 283 282 282 282 282 283 283 283 283 283 282 281 280 280 279 279 279 278 277 276 276 275 275 275 275 275 276 275 274 273 272 270 269 269 268 267 267 267 266 266 266 266 267 267 268 268 269 269 269 269 269 269 269 268 268 268 269 270 270 270 270 269 269 268 267 267 268 268 269 270 271 272 272 272 272 272
294 293 292 290 289 288 287 286 285 284 282 281 280 280 280 281 281 282 281 281 280 279 278 277 277 277 276 275 275 275 275 275 276 276 276 276 276 275 274 273 271 270 269 268 267 267 267 267 267 267 268 269 270 270 270 270 270 270 271 271 271 271 272 272 271 271 270 270 270 270 271 271 271 270 269 268 268 268 268 269 270 270 270 270 270
294 293 292 291 290 289 288 287 286 285 283 281 279 279 279 279 279 279 278 278 277 276 276 275 275 275 274 274 274 274 274 274 274 275 275 275 275 275 274 273 272 271 270 269 268 268 268 269 269 270 270 270 271 270 271 271 272 272 272 272 272 272 272 272 272 271 270 269 269 269 269 270 270 270 270 269 269 268 267 267 267 267 268 268 269
294 293 291 290 289 288 288 287 286 284 282 281 279 277 276 276 276 275 274 274 273 273 273 273 272 273 273 274 274 274 274 275 274 274 274 274 274 274 273 273 273 273 273 273 273 273 273 273 272 272 272 272 272 272 272 273 273 273 272 272 272 272 272 272 272 272 273 273 273 272 272 271 270 270 269 268 267 266 265 265 265 265 266 268 269
296 294 292 291 290 288 288 286 285 282 280 278 277 275 273 272 271 270 270 270 270 271 272 272 272 273 274 275 277 278 278 278 277 276 275 274 273 273 273 274 275 276 277 277 278 277 276 275 274 274 273 273 274 274 274 274 273 273 273 274 274 273 273 273 272 272 273 274 274 274 274 274 273 273 271 270 268 267 266 266 265 264 264 264 264
297 296 294 293 291 290 288 287 285 283 280 277 275 274 272 270 269 269 270 270 270 271 272 273 274 275 275 276 277 279 280 280 280 278 276 275 274 274 274 275 277 278 279 279 279 278 277 277 277 277 277 277 276 276 275 275 275 274 274 274 274 273 273 272 272 272 272 272 272 273 274 274 274 274 274 274 274 273 272 271 269 268 267 266 265
298 297 295 294 292 290 288 286 285 284 282 279 277 275 273 272 272 272 273 273 273 273 273 273 274 274 275 276 277 278 279 279 278 277 276 276 275 276 276 278 278 279 278 277 277 277 278 279 279 279 278 277 276 275 275 275 274 274 274 273 273 273 273 273 272 272 272 271 271 271 271 271 271 271 271 272 272 272 272 272 272 271 271 271 269
297 296 295 293 292 289 287 285 284 284 283 282 281 279 278 276 275 275 276 275 275 275 275 275 275 275 275 276 277 277 277 277 277 278 278 278 278 278 279 279 278 277 277 278 280 280 280 280 278 277 276 276 275 275 274 274 274 274 274 274 274 274 274 274 274 274 273 273 273 273 272 271 270 269 268 268 268 268 268 268 268 269 269 269 269
296 295 294 292 290 288 286 285 283 283 283 283 283 282 281 280 279 278 277 277 278 279 279 280 280 280 281 281 281 280 279 279 281 281 281 281 281 281 280 278 277 278 280 282 282 280 279 278 278 278 278 278 278 278 277 277 277 276 276 275 275 275 275 274 274 274 275 275 275 275 274 274 273 272 270 269 269 267 267 267 267 267 267 267 268
295 293 291 289 287 286 285 284 283 282 281 281 282 281 280 280 281 281 282 282 282 283 283 284 284 284 285 285 284 282 281 281 282 282 283 283 283 282 281 281 281 283 283 281 279 278 277 277 278 278 278 278 279 279 279 279 279 279 279 278 277 277 277 277 277 277 277 277 277 277 276 275 274 273 272 271 270 269 268 268 268 268 268 269 269
293 290 288 286 285 285 284 283 282 281 280 280 280 281 282 281 280 281 283 285 285 286 286 287 288 289 289 288 286 284 283 282 281 281 282 282 281 282 283 284 285 285 282 280 279 279 280 280 279 279 278 278 278 278 278 278 278 278 279 279 279 279 279 279 279 279 279 279 278 278 277 276 275 274 273 272 271 270 269 269 269 269 269 270 270
291 287 285 285 285 285 284 284 283 283 282 282 282 283 286 287 286 286 286 286 287 289 290 291 291 292 292 291 290 289 288 287 286 285 284 283 282 284 286 286 286 285 284 284 283 283 283 283 283 283 282 281 280 280 279 279 279 279 279 279 279 279 279 279 279 279 279 279 279 278 278 277 276 275 274 273 272 271 270 270 270 270 270 270 270
289 285 284 285 286 286 285 285 284 284 285 285 285 285 286 289 291 293 293 292 292 292 292 293 293 293 293 293 294 294 294 293 291 290 288 286 286 288 289 287 287 287 286 286 286 286 285 285 284 284 284 283 283 282 282 281 280 280 280 280 280 280 280 281 281 280 280 279 279 278 278 277 276 276 275 274 273 272 271 271 270 270 270 270 269
288 285 285 286 287 287 286 286 285 285 285 286 286 287 287 288 290 292 295 297 297 297 296 296 295 296 296 296 297 298 298 297 296 294 292 290 290 291 290 287 287 287 286 285 285 285 285 285 285 285 285 284 284 283 283 282 282 281 281 281 281 282 282 281 281 281 280 280 279 278 278 277 277 277 276 276 275 275 274 273 273 272 271 271 270
288 287 288 288 288 287 286 286 286 285 286 286 287 287 288 289 289 289 290 292 294 296 297 298 299 299 298 298 298 298 298 298 298 296 294 293 293 293 290 288 288 288 287 286 287 287 287 287 286 286 286 286 285 285 284 284 283 283 283 283 283 283 283 282 282 282 282 282 281 280 280 280 279 279 278 278 277 277 276 276 275 274 274 273 273
290 290 291 291 289 288 286 286 286 286 287 288 288 288 289 290 290 290 291 291 292 293 295 297 298 298 298 297 297 296 296 297 296 295 295 294 294 293 291 290 290 289 289 289 290 290 290 289 289 288 288 288 287 287 287 286 286 285 285 285 285 285 285 285 285 285 285 284 284 284 284 283 282 282 281 280 280 279 279 278 277 276 276 275 275
292 292 292 291 290 289 288 288 288 289 289 290 290 290 291 292 293 294 295 296 297 297 296 296 296 295 294 295 294 294 295 296 296 295 295 295 295 294 293 292 292 291 291 292 292 292 292 291 291 290 290 290 289 289 289 289 289 288 288 288 288 288 288 287 287 287 287 286 286 286 285 285 285 285 284 284 283 283 282 281 281 280 279 278 278
294 293 293 292 292 292 292 292 292 291 291 291 291 293 294 296 297 299 300 300 300 299 298 297 295 293 293 293 293 295 297 298 298 297 297 297 297 297 296 294 294 293 293 293 293 293 293 292 292 292 291 291 291 291 291 291 291 291 291 291 290 290 290 290 289 289 288 288 288 288 288 288 288 288 288 288 287 287 286 285 284 284 283 282 281
296 295 294 294 294 294 293 293 293 292 292 293 295 297 299 300 301 302 302 302 301 300 299 297 295 293 292 292 292 295 297 299 298 298 298 298 298 298 298 297 296 295 295 295 295 295 295 294 294 293 293 293 293 293 293 293 293 293 293 293 293 292 292 291 291 292 292 292 293 293 293 293 293 292 292 292 291 291 290 289 288 287 286 285 284
298 296 295 296 295 294 293 293 292 294 296 298 300 301 302 302 303 303 303 302 302 301 299 297 294 292 291 291 293 295 297 298 298 297 298 298 299 299 299 297 296 295 296 296 297 297 297 296 296 295 295 295 295 295 295 296 296 296 296 296 295 295 294 294 295 295 296 296 297 297 297 297 297 297 297 296 296 295 294 293 291 290 288 287 286
299 297 296 296 295 294 294 294 295 297 299 300 301 302 302 302 303 303 303 303 302 301 298 295 293 292 292 293 294 296 297 297 297 297 297 298 299 299 299 297 295 294 295 296 297 298 298 298 298 297 297 297 297 298 298 299 299 299 298 298 298 297 297 298 299 299 299 299 299 299 300 300 301 302 301 301 300 299 298 296 295 293 291 290 289
300 298 298 297 296 296 297 297 299 301 301 300 301 301 302 303 304 303 303 303 301 300 298 296 294 294 294 295 296 298 298 298 298 297 297 297 298 299 299 297 295 294 294 295 297 298 299 299 299 299 299 299 300 300 300 300 300 300 300 300 300 301 301 302 302 302 303 303 303 303 304 305 306 306 306 306 305 304 302 301 299 297 296 294 293
303 302 302 301 301 302 301 301 302 302 301 301 302 302 303 304 304 304 303 302 300 299 298 296 296 296 296 296 298 299 299 300 299 298 298 297 297 299 299 298 296 294 294 295 297 299 300 301 301 301 301 301 301 301 301 301 301 301 301 301 302 303 304 304 305 305 306 307 307 309 309 310 311 311 312 312 311 309 307 305 303 301 300 299 298
307 306 306 305 305 304 302 302 302 301 301 301 302 303 304 304 304 303 303 302 300 299 298 297 297 297 297 298 299 300 300 301 300 299 298 297 297 297 298 298 297 295 295 296 298 299 301 302 303 303 303 303 302 302 301 301 301 301 302 303 304 304 305 306 307 309 310 310 311 312 313 315 316 317 318 318 318 316 314 311 309 307 305 304 303
310 309 308 306 305 303 302 301 301 300 300 300 301 302 303 303 303 303 303 302 300 299 298 297 297 297 297 299 300 300 301 301 301 300 299 297 296 297 297 297 297 296 295 296 298 300 302 304 304 304 304 303 302 302 301 302 302 303 304 304 305 306 307 308 310 311 312 313 315 317 318 321 323 324 326 327 326 325 324 321 318 316 314 312 310
310 309 307 305 304 302 301 300 300 300 299 299 301 302 302 303 303 303 303 302 301 299 297 297 297 297 298 299 300 301 301 302 302 301 300 298 298 297 297 297 297 296 296 296 298 299 301 303 304 305 304 303 302 302 302 303 304 305 305 306 307 308 310 311 312 314 316 318 321 323 325 328 331 333 335 337 338 337 336 334 332 331 328 325 324
309 308 306 305 303 302 300 299 299 299 298 299 301 302 302 302 303 303 303 302 301 299 297 296 295 295 297 298 299 301 302 302 303 302 301 300 299 299 299 299 299 297 296 296 297 298 301 303 304 305 304 303 303 303 304 306 306 307 308 309 310 312 313 315 316 319 322 324 328 331 334 337 341 344 347 348 349 350 350 349 348 347 345 343 341
309 308 306 305 303 301 300 299 298 298 298 299 300 302 302 302 303 303 303 303 302 300 298 295 294 293 294 295 298 301 303 304 304 304 303 301 301 301 301 302 301 299 297 297 297 298 300 302 303 304 303 303 304 305 306 307 309 310 312 313 314 316 318 320 323 326 329 332 336 339 343 348 352 355 358 360 1 2 2 1 0 359 358 357 355
309 308 306 305 303 301 300 298 297 297 298 299 301 302 302 303 303 303 303 303 302 301 298 296 294 292 291 292 295 299 302 304 305 304 303 302 301 302 303 304 303 302 300 299 298 299 300 302 303 303 303 304 306 307 308 310 312 314 316 317 318 320 323 326 330 334 338 343 347 351 355 359 3 6 8 9 10 10 10 9 8 7 6 5 3
309 308 306 304 303 301 299 298 298 298 298 299 301 301 302 302 303 303 303 303 302 301 299 297 295 292 290 291 293 296 300 303 304 304 303 302 301 301 303 304 305 304 302 300 299 300 301 301 301 302 304 306 307 308 310 313 316 318 320 321 324 326 330 334 341 348 354 359 3 8 11 13 15 16 16 15 15 14 13 11 11 10 8 7 6
308 307 305 303 302 301 300 299 299 299 299 300 300 300 301 302 302 302 302 302 301 300 299 298 296 293 291 291 291 293 297 300 302 303 303 301 299 300 302 304 305 305 304 301 300 300 300 300 300 302 304 306 307 309 313 316 319 322 326 328 331 337 343 352 2 11 17 21 23 23 23 21 20 19 17 14 12 11 9 8 7 6 5 4 3
Height
2966 2965 2964 2963 2962 2961 2961 2960 2960 2960 2960 2960 2961 2961 2961 2962 2962 2962 2963 2963 2964 2964 2965 2966 2966 2967 2968 2969 2969 2970 2971 2971 2972 2972 2973 2973 2974 2974 2975 2975 2975 2976 2976 2976 2977 2977 2977 2978 2979 2979 2979 2979 2980 2980 2980 2980 2980 2980 2980 2980 2980 2980 2980 2978 2978 2979 2979 2979 2981 2982 2983 2984 2984 2984 2985 2985 2986 2987 2987 2987 2986 2987 2987 2988 2989
2962 2961 2960 2959 2958 2957 2957 2956 2956 2956 2956 2956 2956 2957 2957 2957 2957 2958 2958 2959 2959 2960 2960 2960 2961 2962 2962 2963 2964 2964 2965 2965 2965 2966 2966 2967 2968 2968 2968 2968 2969 2970 2970 2970 2970 2970 2971 2971 2972 2972 2971 2972 2972 2972 2973 2973 2972 2972 2972 2972 2972 2973 2973 2971 2971 2972 2971 2971 2973 2974 2975 2975 2976 2977 2977 2978 2979 2979 2979 2979 2979 2979 2980 2980 2982
2958 2957 2956 2955 2954 2953 2953 2952 2951 2951 2952 2952 2952 2952 2952 2952 2952 2952 2953 2953 2954 2955 2955 2955 2956 2956 2957 2957 2958 2958 2959 2959 2959 2959 2960 2960 2961 2961 2962 2962 2962 2963 2963 2964 2964 2964 2964 2964 2965 2965 2964 2964 2965 2965 2965 2965 2964 2964 2964 2965 2965 2965 2965 2964 2964 2964 2964 2964 2965 2966 2966 2967 2968 2969 2970 2970 2970 2971 2971 2971 2972 2972 2972 2973 2975
2953 2952 2951 2950 2949 2949 2948 2947 2947 2947 2947 2947 2947 2947 2946 2946 2947 2947 2948 2948 2949 2949 2950 2950 2951 2951 2951 2952 2952 2952 2952 2953 2952 2953 2953 2953 2954 2954 2955 2955 2955 2956 2956 2957 2957 2956 2957 2957 2957 2957 2956 2957 2957 2957 2956 2956 2956 2957 2957 2957 2957 2957 2957 2956 2956 2957 2956 2956 2957 2958 2959 2960 2960 2961 2961 2961 2962 2963 2963 2964 2964 2965 2965 2966 2968
2948 2947 2946 2945 2945 2944 2943 2943 2942 2942 2942 2942 2942 2941 2941 2941 2941 2942 2942 2943 2943 2944 2944 2944 2945 2945 2945 2945 2946 2946 2946 2946 2945 2946 2946 2946 2946 2947 2947 2948 2948 2949 2949 2949 2949 2949 2949 2950 2950 2949 2948 2948 2949 2949 2948 2949 2949 2949 2949 2949 2949 2949 2949 2949 2949 2949 2949 2949 2949 2951 2952 2952 2952 2953 2953 2953 2954 2955 2956 2956 2957 2957 2958 2959 2961
2941 2941 2940 2940 2939 2939 2938 2938 2937 2937 2936 2936 2936 2936 2936 2935 2935 2935 2936 2936 2937 2937 2937 2938 2938 2938 2938 2938 2938 2938 2938 2938 2938 2938 2938 2938 2938 2939 2939 2940 2940 2941 2941 2941 2941 2941 2941 2941 2941 2940 2940 2940 2941 2941 2941 2941 2941 2941 2941 2941 2941 2941 2941 2941 2942 2942 2942 2942 2942 2943 2944 2945 2945 2946 2946 2946 2946 2946 2947 2948 2949 2950 2951 2953 2954
2935 2934 2934 2933 2933 2932 2932 2932 2932 2931 2931 2931 2930 2930 2930 2929 2929 2929 2930 2930 2930 2930 2931 2931 2931 2931 2931 2931 2930 2930 2930 2930 2930 2930 2930 2930 2931 2931 2931 2932 2932 2933 2933 2933 2933 2933 2933 2933 2933 2932 2932 2933 2933 2933 2933 2934 2934 2934 2934 2934 2934 2934 2934 2934 2934 2935 2935 2935 2935 2936 2937 2938 2938 2938 2939 2939 2938 2938 2939 2941 2942 2944 2945 2945 2946
2928 2927 2926 2926 2926 2925 2925 2925 2925 2925 2925 2925 2924 2924 2923 2923 2923 2923 2923 2924 2924 2924 2924 2924 2924 2923 2923 2923 2923 2923 2922 2922 2922 2922 2922 2923 2923 2923 2923 2924 2924 2925 2925 2925 2925 2925 2925 2925 2925 2925 2925 2925 2926 2926 2926 2926 2926 2927 2927 2927 2927 2927 2927 2927 2928 2928 2928 2928 2929 2929 2930 2930 2931 2931 2932 2932 2931 2932 2934 2935 2936 2937 2937 2937 2938
2921 2920 2919 2919 2918 2918 2918 2918 2918 2918 2917 2917 2917 2917 2916 2916 2916 2916 2916 2916 2916 2916 2916 2916 2916 2916 2915 2915 2915 2915 2915 2915 2914 2914 2914 2914 2915 2915 2915 2916 2916 2917 2917 2917 2917 2918 2918 2918 2918 2918 2918 2918 2919 2919 2919 2919 2919 2920 2920 2920 2920 2920 2921 2921 2921 2921 2922 2922 2922 2923 2923 2924 2924 2925 2925 2926 2927 2928 2928 2928 2928 2929 2929 2929 2929
2915 2914 2913 2912 2911 2911 2910 2910 2910 2910 2910 2909 2909 2909 2909 2909 2908 2908 2908 2908 2908 2908 2908 2908 2907 2907 2907 2907 2907 2907 2907 2907 2906 2906 2906 2906 2907 2907 2907 2908 2908 2909 2909 2909 2910 2910 2910 2911 2911 2911 2911 2911 2912 2912 2912 2912 2913 2913 2913 2914 2914 2914 2914 2914 2915 2915 2915 2916 2916 2916 2916 2917 2918 2919 2919 2921 2921 2921 2920 2920 2920 2922 2921 2920 2920
2909 2908 2907 2906 2905 2904 2903 2903 2902 2902 2902 2902 2902 2901 2901 2901 2901 2900 2900 2900 2899 2899 2900 2899 2899 2899 2900 2899 2899 2899 2899 2899 2899 2899 2899 2899 2899 2900 2900 2900 2900 2901 2901 2901 2902 2903 2903 2903 2904 2904 2904 2905 2905 2905 2905 2906 2906 2906 2906 2907 2907 2907 2907 2907 2908 2908 2909 2909 2910 2910 2910 2911 2912 2913 2913 2914 2914 2913 2913 2913 2913 2913 2912 2911 2912
2903 2902 2901 2900 2899 2898 2897 2896 2896 2895 2895 2895 2894 2894 2894 2894 2894 2893 2893 2893 2892 2892 2892 2892 2892 2892 2892 2892 2892 2892 2892 2892 2891 2891 2892 2892 2892 2892 2893 2893 2893 2893 2893 2894 2894 2895 2895 2896 2896 2897 2897 2897 2898 2898 2898 2898 2899 2899 2899 2900 2900 2900 2901 2901 2901 2902 2902 2903 2903 2903 2904 2905 2905 2906 2907 2906 2906 2906 2905 2904 2904 2904 2903 2903 2904
2897 2896 2895 2893 2892 2891 2891 2890 2889 2889 2888 2888 2888 2888 2887 2887 2887 2887 2887 2887 2886 2886 2886 2885 2885 2885 2885 2885 2885 2884 2884 2884 2884 2884 2885 2885 2885 2886 2886 2886 2886 2886 2886 2887 2887 2887 2888 2889 2889 2890 2890 2890 2891 2891 2891 2891 2892 2892 2892 2893 2893 2894 2894 2894 2895 2895 2895 2896 2896 2897 2898 2898 2898 2899 2900 2899 2898 2897 2896 2896 2896 2895 2895 2895 2896
2890 2889 2888 2887 2886 2885 2884 2884 2883 2883 2882 2882 2881 2881 2881 2881 2881 2881 2880 2880 2880 2880 2879 2879 2879 2878 2878 2878 2878 2877 2877 2877 2877 2877 2878 2879 2879 2879 2879 2879 2879 2879 2879 2880 2880 2881 2881 2882 2882 2883 2883 2883 2884 2884 2884 2884 2884 2885 2885 2885 2886 2886 2887 2887 2888 2888 2888 2888 2889 2890 2891 2891 2890 2890 2891 2890 2889 2888 2888 2888 2888 2887 2887 2887 2887
2884 2883 2882 2881 2880 2879 2878 2878 2877 2876 2876 2875 2875 2875 2875 2875 2874 2874 2874 2874 2874 2874 2873 2873 2872 2872 2872 2872 2872 2871 2871 2871 2871 2870 2871 2872 2872 2872 2872 2872 2872 2873 2873 2873 2874 2874 2875 2875 2875 2876 2876 2876 2876 2876 2876 2877 2877 2877 2877 2878 2878 2879 2880 2880 2880 2880 2881 2881 2881 2882 2882 2882 2882 2882 2882 2881 2880 2880 2880 2880 2880 2879 2878 2878 2878
2879 2878 2877 2875 2874 2873 2872 2871 2871 2870 2869 2869 2868 2868 2868 2868 2868 2868 2868 2868 2868 2868 2867 2867 2867 2867 2866 2866 2866 2865 2865 2865 2864 2864 2864 2865 2865 2865 2865 2865 2865 2866 2866 2867 2867 2867 2868 2868 2869 2869 2869 2869 2869 2869 2869 2869 2869 2870 2870 2871 2871 2872 2872 2873 2873 2873 2873 2873 2874 2875 2874 2874 2873 2873 2872 2872 2872 2872 2871 2871 2871 2871 2870 2870 2870
2873 2872 2871 2870 2869 2868 2867 2866 2865 2864 2864 2863 2862 2862 2862 2861 2861 2861 2861 2861 2861 2861 2861 2861 2861 2861 2861 2860 2860 2859 2859 2858 2858 2858 2858 2859 2859 2859 2859 2859 2859 2859 2859 2860 2860 2861 2861 2862 2862 2862 2862 2862 2862 2862 2862 2862 2863 2863 2864 2864 2864 2864 2865 2866 2865 2865 2866 2865 2866 2866 2866 2865 2865 2865 2864 2863 2864 2863 2862 2862 2863 2862 2862 2862 2862
2867 2866 2865 2864 2863 2862 2861 2860 2860 2859 2858 2858 2857 2857 2856 2856 2855 2855 2855 2855 2854 2854 2854 2854 2854 2854 2854 2854 2853 2853 2853 2852 2852 2852 2852 2853 2853 2853 2853 2853 2853 2853 2853 2853 2854 2854 2854 2855 2855 2856 2856 2856 2856 2856 2856 2856 2857 2857 2857 2857 2857 2857 2858 2858 2858 2858 2858 2858 2858 2858 2857 2856 2856 2857 2856 2856 2856 2855 2854 2854 2854 2854 2853 2853 2853
2862 2861 2860 2859 2857 2856 2855 2855 2854 2854 2853 2852 2852 2851 2851 2850 2850 2849 2849 2848 2848 2848 2847 2847 2847 2847 2847 2847 2847 2847 2846 2846 2846 2845 2845 2846 2847 2847 2847 2847 2847 2847 2848 2848 2848 2848 2848 2849 2849 2849 2849 2849 2849 2849 2849 2849 2850 2850 2850 2850 2850 2851 2851 2851 2851 2851 2851 2851 2851 2850 2850 2849 2848 2848 2848 2848 2847 2846 2846 2847 2846 2845 2845 2846 2846
2857 2856 2855 2853 2852 2851 2850 2849 2849 2848 2848 2847 2846 2846 2845 2845 2844 2844 2843 2843 2842 2842 2841 2841 2841 2840 2840 2840 2840 2840 2840 2839 2839 2839 2839 2839 2840 2841 2842 2841 2841 2842 2842 2842 2843 2843 2843 2843 2843 2843 2843 2843 2843 2843 2843 2843 2843 2843 2843 2843 2843 2844 2844 2844 2844 2843 2843 2843 2843 2843 2843 2842 2841 2840 2840 2839 2839 2838 2838 2838 2838 2837 2838 2838 2838
2851 2850 2849 2848 2847 2846 2845 2844 2844 2843 2843 2842 2841 2841 2840 2839 2839 2838 2838 2837 2837 2836 2836 2835 2835 2835 2835 2834 2834 2834 2834 2833 2833 2833 2833 2833 2834 2835 2836 2836 2836 2836 2836 2837 2837 2837 2837 2837 2836 2836 2836 2836 2836 2836 2836 2836 2836 2836 2836 2836 2836 2837 2837 2837 2837 2836 2836 2836 2836 2835 2835 2835 2834 2834 2834 2833 2833 2832 2830 2830 2830 2829 2829 2829 2829
2845 2844 2843 2842 2841 2840 2840 2839 2838 2838 2838 2837 2837 2836 2835 2834 2834 2833 2833 2832 2832 2831 2831 2830 2830 2830 2829 2829 2829 2829 2829 2828 2828 2828 2828 2828 2828 2829 2829 2829 2830 2830 2830 2831 2830 2830 2830 2830 2830 2830 2830 2830 2830 2830 2830 2830 2829 2829 2830 2829 2829 2830 2829 2829 2830 2829 2829 2829 2829 2828 2827 2827 2827 2827 2826 2826 2826 2826 2824 2824 2823 2822 2821 2821 2820
2841 2839 2838 2836 2835 2835 2834 2833 2833 2833 2832 2832 2831 2831 2830 2829 2829 2828 2828 2827 2827 2827 2826 2826 2825 2825 2825 2824 2824 2824 2824 2824 2824 2824 2824 2824 2824 2823 2823 2823 2823 2823 2824 2824 2824 2824 2825 2825 2825 2825 2824 2824 2824 2823 2823 2823 2823 2823 2823 2823 2823 2823 2822 2821 2821 2820 2820 2820 2820 2820 2820 2820 2819 2819 2818 2818 2818 2818 2817 2816 2815 2814 2813 2813 2813
2836 2834 2833 2832 2831 2830 2829 2828 2828 2828 2827 2827 2826 2826 2825 2824 2824 2824 2823 2823 2823 2822 2822 2822 2821 2821 2820 2820 2820 2820 2820 2820 2821 2821 2821 2820 2819 2819 2818 2817 2817 2817 2818 2818 2818 2819 2819 2819 2819 2819 2818 2818 2817 2817 2817 2817 2817 2816 2816 2816 2816 2816 2815 2814 2813 2812 2812 2811 2811 2811 2811 2811 2811 2811 2811 2811 2811 2810 2809 2809 2808 2808 2807 2807 2806
2830 2829 2827 2827 2826 2825 2824 2823 2823 2823 2823 2822 2822 2821 2821 2820 2820 2819 2819 2819 2819 2818 2818 2817 2817 2817 2816 2816 2816 2816 2816 2816 2816 2817 2816 2816 2815 2814 2813 2813 2813 2813 2813 2813 2813 2813 2813 2813 2813 2813 2813 2813 2812 2812 2811 2811 2811 2810 2809 2809 2809 2808 2808 2808 2807 2806 2805 2804 2803 2803 2802 2802 2802 2802 2802 2802 2802 2802 2802 2802 2802 2801 2801 2800 2800
2824 2823 2822 2821 2820 2819 2819 2818 2817 2817 2817 2817 2817 2817 2816 2816 2816 2815 2815 2815 2814 2814 2814 2813 2813 2813 2813 2813 2813 2812 2812 2812 2812 2812 2811 2811 2810 2810 2809 2809 2809 2809 2808 2808 2808 2807 2807 2807 2807 2807 2807 2807 2806 2806 2805 2804 2804 2803 2803 2802 2802 2801 2801 2800 2800 2799 2798 2798 2796 2796 2795 2794 2793 2793 2792 2792 2791 2792 2792 2792 2792 2792 2792 2792 2792
2819 2818 2816 2816 2815 2814 2814 2813 2812 2812 2812 2812 2812 2812 2812 2812 2811 2811 2811 2811 2810 2810 2810 2810 2810 2810 2810 2810 2810 2810 2809 2808 2808 2807 2806 2806 2806 2805 2805 2805 2805 2804 2803 2803 2802 2802 2802 2802 2802 2801 2801 2800 2800 2799 2798 2798 2797 2797 2796 2796 2795 2794 2794 2793 2793 2792 2791 2791 2790 2789 2789 2788 2787 2786 2785 2784 2784 2783 2783 2782 2782 2782 2783 2782 2781
2814 2813 2812 2811 2810 2809 2809 2808 2808 2808 2807 2807 2807 2807 2807 2807 2807 2807 2807 2806 2806 2806 2806 2805 2805 2806 2806 2806 2807 2806 2806 2804 2803 2803 2802 2801 2801 2801 2801 2801 2800 2799 2798 2798 2798 2798 2797 2796 2795 2795 2794 2793 2793 2793 2792 2792 2791 2790 2790 2789 2789 2788 2788 2787 2786 2785 2784 2784 2783 2782 2782 2781 2780 2779 2778 2777 2777 2776 2775 2774 2774 2774 2774 2773 2772
2809 2808 2807 2806 2806 2805 2804 2804 2804 2804 2804 2804 2803 2803 2803 2803 2803 2803 2803 2802 2802 2802 2801 2801 2801 2801 2802 2802 2802 2802 2801 2800 2799 2798 2797 2796 2796 2796 2796 2795 2794 2794 2795 2794 2793 2791 2790 2789 2789 2788 2787 2787 2786 2786 2785 2785 2784 2784 2783 2783 2782 2782 2781 2780 2780 2779 2778 2777 2776 2775 2774 2773 2772 2772 2771 2770 2770 2769 2768 2767 2766 2766 2766 2765 2763
2804 2803 2802 2802 2801 2801 2800 2800 2800 2801 2801 2800 2800 2800 2800 2800 2799 2799 2799 2798 2798 2798 2798 2797 2797 2797 2797 2798 2798 2797 2797 2797 2795 2794 2793 2792 2790 2790 2789 2789 2789 2790 2790 2788 2786 2785 2784 2784 2783 2782 2782 2781 2780 2779 2779 2778 2777 2777 2776 2776 2775 2774 2774 2773 2772 2771 2771 2770 2769 2768 2767 2766 2765 2764 2763 2762 2762 2761 2760 2759 2759 2758 2757 2756 2755
2800 2799 2798 2798 2797 2797 2797 2797 2797 2797 2797 2797 2797 2796 2796 2796 2796 2796 2795 2795 2794 2794 2794 2793 2793 2792 2792 2793 2793 2792 2792 2792 2791 2790 2789 2787 2785 2785 2784 2784 2784 2783 2783 2781 2780 2779 2778 2778 2777 2776 2776 2775 2774 2774 2773 2772 2771 2770 2769 2769 2768 2767 2766 2766 2765 2764 2763 2762 2761 2760 2759 2758 2757 2756 2756 2755 2754 2754 2753 2751 2751 2750 2749 2748 2747
2796 2795 2794 2794 2794 2793 2793 2793 2793 2793 2793 2793 2793 2793 2792 2792 2792 2792 2792 2792 2791 2790 2790 2790 2789 2788 2787 2787 2787 2787 2787 2787 2786 2786 2784 2782 2781 2780 2780 2778 2777 2777 2776 2774 2773 2773 2772 2771 2770 2770 2769 2769 2768 2767 2767 2766 2765 2764 2763 2762 2761 2761 2760 2759 2758 2757 2756 2755 2754 2753 2752 2751 2750 2749 2748 2747 2746 2746 2745 2744 2743 2742 2741 2740 2739
2792 2792 2791 2791 2790 2790 2790 2790 2790 2790 2790 2790 2790 2790 2789 2789 2788 2788 2787 2787 2787 2787 2786 2786 2785 2784 2783 2782 2782 2781 2781 2781 2781 2780 2779 2777 2776 2776 2775 2773 2771 2771 2770 2768 2767 2767 2766 2765 2764 2764 2763 2762 2762 2761 2760 2760 2759 2758 2757 2756 2755 2754 2754 2753 2751 2750 2749 2748 2748 2746 2745 2744 2743 2742 2741 2740 2739 2738 2737 2736 2735 2734 2733 2732 2731
2789 2788 2788 2788 2787 2787 2787 2787 2787 2787 2787 2787 2787 2787 2786 2786 2786 2785 2784 2783 2782 2782 2781 2781 2781 2780 2778 2778 2777 2776 2775 2775 2774 2774 2773 2771 2771 2771 2769 2767 2766 2766 2765 2763 2763 2762 2761 2760 2759 2758 2758 2757 2756 2755 2755 2754 2753 2752 2751 2750 2749 2748 2747 2746 2745 2744 2743 2742 2741 2740 2739 2738 2736 2735 2734 2733 2731 2730 2729 2728 2727 2726 2725 2724 2723
2785 2785 2785 2785 2784 2784 2784 2784 2784 2784 2784 2784 2784 2784 2784 2783 2783 2783 2783 2781 2780 2779 2777 2776 2775 2775 2774 2773 2772 2771 2770 2769 2769 2768 2767 2766 2766 2765 2764 2763 2762 2761 2760 2759 2758 2757 2756 2755 2754 2753 2753 2752 2751 2750 2749 2748 2747 2746 2745 2744 2743 2742 2741 2740 2739 2738 2737 2736 2735 2733 2732 2731 2730 2728 2727 2726 2724 2723 2722 2720 2719 2718 2717 2715 2714
2782 2782 2782 2782 2782 2781 2781 2781 2781 2781 2781 2781 2781 2781 2781 2780 2780 2780 2779 2779 2778 2776 2775 2773 2772 2770 2769 2769 2768 2767 2766 2765 2764 2763 2762 2761 2760 2760 2759 2758 2757 2756 2755 2754 2753 2752 2751 2750 2749 2748 2747 2746 2745 2745 2744 2743 2742 2741 2740 2739 2738 2737 2735 2734 2733 2732 2731 2729 2728 2727 2726 2724 2723 2721 2720 2719 2717 2716 2714 2713 2711 2710 2709 2707 2706
2779 2779 2779 2779 2779 2779 2779 2779 2779 2778 2778 2778 2778 2778 2777 2777 2777 2776 2775 2774 2774 2773 2771 2770 2769 2767 2765 2764 2764 2763 2762 2761 2760 2759 2757 2756 2756 2755 2754 2753 2753 2752 2751 2750 2748 2747 2746 2745 2744 2743 2742 2741 2740 2739 2738 2737 2736 2735 2734 2733 2732 2731 2730 2728 2727 2726 2724 2723 2722 2720 2719 2717 2716 2715 2713 2712 2710 2709 2707 2705 2704 2702 2701 2699 2698
2777 2776 2776 2776 2776 2776 2776 2776 2776 2776 2775 2775 2775 2774 2774 2773 2773 2772 2771 2770 2770 2769 2767 2766 2765 2763 2762 2760 2759 2758 2758 2757 2755 2754 2753 2752 2751 2750 2749 2749 2748 2747 2746 2745 2744 2742 2741 2740 2739 2738 2737 2736 2735 2734 2733 2732 2731 2730 2729 2728 2726 2725 2724 2722 2721 2720 2718 2717 2715 2714 2713 2711 2710 2708 2707 2705 2703 2702 2700 2698 2696 2694 2693 2691 2689
2774 2774 2774 2773 2773 2773 2773 2773 2773 2773 2772 2772 2771 2771 2770 2769 2769 2768 2767 2767 2766 2765 2763 2762 2761 2759 2758 2757 2756 2755 2754 2752 2751 2750 2749 2748 2747 2746 2745 2744 2743 2742 2741 2740 2739 2738 2736 2735 2734 2733 2732 2731 2730 2729 2728 2727 2726 2725 2724 2722 2721 2719 2718 2716 2715 2714 2712 2711 2709 2708 2706 2705 2703 2702 2700 2699 2697 2695 2693 2691 2689 2687 2685 2683 2681
2772 2771 2771 2771 2771 2770 2770 2770 2770 2769 2769 2768 2768 2767 2767 2766 2765 2765 2764 2763 2762 2761 2759 2758 2757 2756 2755 2754 2752 2751 2750 2749 2747 2746 2745 2744 2743 2742 2741 2739 2738 2737 2736 2735 2734 2733 2732 2731 2730 2729 2727 2727 2725 2724 2723 2722 2721 2720 2718 2717 2716 2714 2712 2711 2710 2708 2707 2706 2704 2702 2701 2699 2698 2696 2694 2692 2690 2688 2686 2684 2682 2680 2678 2676 2674
2770 2769 2769 2769 2768 2768 2768 2767 2767 2766 2765 2765 2764 2764 2763 2763 2762 2761 2760 2759 2758 2757 2756 2754 2753 2752 2751 2750 2749 2748 2746 2745 2744 2742 2741 2740 2739 2738 2737 2736 2735 2733 2732 2731 2730 2729 2728 2727 2725 2724 2723 2722 2721 2720 2718 2717 2716 2715 2713 2712 2710 2709 2707 2706 2705 2704 2702 2701 2699 2697 2696 2694 2692 2691 2689 2686 2684 2682 2680 2677 2675 2673 2671 2669 2667
2767 2767 2766 2766 2765 2765 2765 2764 2763 2763 2762 2761 2761 2760 2760 2759 2758 2757 2756 2755 2754 2753 2752 2750 2749 2748 2747 2746 2745 2743 2742 2741 2740 2738 2737 2736 2735 2734 2733 2732 2731 2730 2728 2727 2726 2725 2724 2723 2721 2720 2719 2718 2717 2715 2714 2713 2712 2710 2709 2707 2706 2704 2703 2702 2700 2699 2698 2696 2695 2693 2691 2690 2688 2686 2683 2681 2679 2676 2674 2671 2669 2667 2665 2663 2661
2765 2764 2764 2763 2762 2762 2761 2760 2760 2759 2758 2758 2757 2757 2756 2755 2754 2753 2752 2751 2750 2749 2748 2746 2745 2744 2743 2742 2740 2739 2738 2737 2735 2734 2733 2732 2730 2729 2728 2727 2726 2725 2724 2723 2722 2721 2720 2719 2717 2716 2715 2714 2713 2711 2710 2709 2708 2706 2705 2703 2702 2700 2699 2697 2696 2695 2694 2692 2691 2689 2687 2685 2683 2681 2679 2676 2674 2672 2669 2667 2664 2662 2660 2658 2656
2762 2762 2761 2760 2759 2758 2758 2757 2756 2756 2755 2754 2753 2753 2752 2751 2750 2749 2748 2747 2746 2745 2743 2742 2741 2740 2739 2737 2736 2735 2734 2732 2731 2730 2729 2727 2726 2725 2724 2723 2722 2721 2720 2719 2718 2717 2716 2715 2713 2712 2711 2710 2709 2708 2706 2705 2704 2702 2701 2700 2698 2697 2696 2694 2693 2691 2690 2688 2687 2685 2684 2682 2680 2678 2675 2673 2670 2668 2665 2663 2661 2658 2656 2654 2652
2760 2759 2758 2757 2756 2755 2754 2754 2753 2752 2751 2751 2750 2749 2748 2747 2746 2745 2744 2743 2742 2740 2739 2738 2737 2736 2735 2734 2732 2731 2730 2729 2727 2726 2724 2723 2722 2721 2720 2718 2717 2717 2716 2715 2714 2713 2712 2711 2709 2708 2707 2706 2705 2704 2703 2702 2700 2699 2698 2696 2695 2694 2692 2691 2690 2688 2687 2686 2684 2682 2681 2679 2677 2675 2672 2670 2667 2665 2662 2660 2658 2656 2653 2651 2650
2757 2756 2755 2754 2753 2752 2751 2750 2749 2748 2748 2747 2746 2745 2744 2743 2742 2741 2740 2738 2737 2736 2735 2734 2733 2732 2731 2730 2729 2727 2726 2725 2723 2722 2721 2719 2718 2717 2716 2714 2713 2712 2712 2711 2710 2709 2708 2707 2706 2705 2704 2703 2702 2701 2700 2698 2697 2696 2695 2693 2692 2691 2689 2688 2687 2686 2684 2683 2681 2680 2678 2676 2675 2672 2670 2668 2665 2663 2661 2658 2656 2654 2652 2650 2648
2754 2753 2752 2751 2750 2749 2748 2747 2746 2745 2744 2743 2742 2741 2740 2739 2738 2737 2735 2734 2733 2732 2731 2730 2729 2728 2727 2726 2725 2724 2722 2721 2719 2718 2717 2715 2714 2713 2712 2711 2710 2709 2708 2707 2706 2705 2704 2703 2702 2701 2700 2699 2698 2697 2696 2695 2694 2693 2691 2690 2689 2688 2687 2686 2684 2683 2682 2681 2679 2678 2676 2674 2673 2670 2668 2666 2664 2662 2659 2657 2655 2653 2651 2649 2647
2751 2750 2749 2748 2746 2745 2744 2743 2742 2741 2740 2739 2738 2737 2736 2735 2734 2732 2731 2730 2729 2728 2727 2726 2725 2724 2723 2722 2721 2720 2718 2717 2716 2714 2713 2712 2710 2709 2708 2707 2706 2705 2704 2703 2702 2701 2701 2700 2699 2698 2697 2696 2695 2694 2693 2692 2691 2690 2688 2687 2686 2685 2684 2683 2682 2681 2680 2679 2677 2676 2675 2673 2671 2669 2667 2665 2663 2661 2659 2657 2654 2652 2650 2648 2646
2747 2746 2745 2744 2743 2741 2740 2739 2738 2737 2736 2735 2734 2733 2732 2731 2729 2728 2727 2726 2725 2723 2722 2721 2720 2720 2719 2718 2717 2716 2714 2713 2712 2710 2709 2708 2707 2705 2704 2703 2702 2701 2700 2699 2699 2698 2697 2696 2695 2695 2694 2693 2692 2691 2690 2689 2688 2687 2686 2685 2684 2683 2682 2681 2680 2679 2678 2677 2676 2675 2674 2672 2670 2668 2666 2664 2662 2660 2658 2656 2654 2652 2650 2648 2646
2744 2742 2741 2740 2739 2738 2736 2735 2734 2733 2732 2731 2730 2729 2727 2726 2725 2724 2722 2721 2720 2719 2718 2717 2716 2715 2714 2713 2712 2711 2710 2709 2708 2707 2705 2704 2703 2702 2701 2700 2699 2698 2697 2696 2695 2694 2694 2693 2692 2692 2691 2690 2689 2688 2687 2686 2685 2685 2684 2683 2682 2681 2681 2680 2679 2678 2677 2676 2675 2674 2673 2671 2670 2668 2666 2664 2662 2660 2658 2656 2654 2652 2650 2648 2646
2740 2738 2737 2736 2735 2734 2732 2731 2730 2729 2728 2727 2725 2724 2723 2722 2720 2719 2718 2717 2716 2714 2713 2712 2711 2710 2709 2709 2708 2707 2706 2705 2704 2703 2702 2700 2699 2698 2697 2696 2695 2694 2693 2693 2692 2691 2691 2690 2689 2689 2688 2688 2687 2686 2685 2684 2683 2683 2682 2681 2681 2680 2679 2679 2678 2677 2676 2675 2674 2673 2672 2671 2669 2667 2666 2664 2662 2660 2658 2656 2654 2652 2650 2648 2646